Regional Weather Roundup
Issued by NWS

Home | Current Version | Previous Version | Text Only | Print | Product List | Glossary On
Versions: 1 2 3 4 5 6 7 8 9 10 11 12 13 14 15 16 17 18 19 20 21 22 23 24 25 26 27 28 29 30 31 32 33 34 35 36 37 38 39 40 41 42 43 44 45 46 47 48 49 50
384
ASUS43 KMPX 190710
RWRMN
WEATHER ROUNDUP FOR MINNESOTA
NATIONAL WEATHER SERVICE TWIN CITIES/CHANHASSEN MN
100 AM CST SUN NOV 19 2017


NOTE: "FAIR" INDICATES FEW OR NO CLOUDS BELOW 12,000 FEET WITH NO
SIGNIFICANT WEATHER AND/OR OBSTRUCTIONS TO VISIBILITY. N/A MEANS
CURRENT SKY AND/OR WEATHER CONDITIONS ARE NOT AVAILABLE.

MNZ060>063-068>070-190800-
   Twin Cities Metro

CITY           SKY/WX    TMP DP  RH WIND       PRES   REMARKS
TWIN CITIES    PTCLDY    20  11  68 NW12      30.05R WCI   8
ST PAUL        PTCLDY    20  11  68 NW12      30.07R WCI   8
CRYSTAL        CLEAR     19   7  59 W8        30.05R WCI   9
BLAINE         PTCLDY    19  10  68 W8        30.04S WCI   9
LAKEVILLE      PTCLDY    18  12  79 W9        30.05S WCI   6
EDEN PRAIRIE   CLEAR     21   9  59 NW8       30.05R WCI  11
SOUTH ST PAUL  PTCLDY    21  10  63 NW12      30.06S WCI   9
LAKE ELMO      FAIR      21  12  68 NW9       30.05R WCI  11
$$
MNZ001>005-007-008-013>017-022>024-027-028-190800-
   Northwest Minnesota

CITY           SKY/WX    TMP DP  RH WIND       PRES   REMARKS
BEMIDJI        CLEAR     10   6  84 W7        29.98F WCI  -1
HALLOCK        CLOUDY     1  -2  85 CALM      30.00S
ROSEAU         CLOUDY    10   3  72 W6        29.97F WCI   1
WARROAD        CLOUDY     7   3  85 W6        29.96F WCI  -3
THIEF RVR FALL CLEAR      9   5  84 W8        30.01F WCI  -3
CROOKSTON      CLEAR     10   7  85 CALM      30.04F
FOSSTON        CLEAR      7   3  85 SW5       30.01F WCI  -2
DETROIT LAKES  CLEAR     16  12  86 W6        30.03F WCI   7
MOORHEAD       CLEAR     12   9  85 CALM      30.08S
PARK RAPIDS    CLEAR      9   4  80 W3        30.00S
MAHNOMEN       FAIR      10   6  85 SW5       30.02F WCI   2
$$
MNZ006-009>011-018-025>026-190800-
   North Central Minnesota

CITY           SKY/WX    TMP DP  RH WIND       PRES   REMARKS
BAUDETTE       CLEAR      8   3  80 W7        29.95S WCI  -3
FLAG ISLAND    CLEAR      7   3  85 W12       29.94S WCI  -9
INTL FALLS     CLOUDY    11   5  77 W7        29.93F WCI   0
WASKISH        CLEAR     12   7  79 W9        29.98S WCI   0
BIG FORK       CLEAR     10   5  79 W3        29.95F
LONGVILLE      CLEAR     12   9  85 W10       29.99S WCI  -1
GRAND RAPIDS   PTCLDY    12   7  80 NW7       29.98S WCI   1
CRANE LAKE     CLOUDY    12   7  79 W7        29.94S WCI   2
ORR            CLOUDY    12   5  73 W9        29.89F WCI   0
COOK           FLURRIES  12   7  79 W9        29.92F WCI   0
WALKER         FAIR      10   6  83 W6        29.99F WCI   1
$$
MNZ012-019>021-037-190800-
   Northeast Minnesota

CITY           SKY/WX    TMP DP  RH WIND       PRES   REMARKS
DULUTH         FLURRIES  14   8  77 NW15      29.91S WCI  -1
ELY            CLOUDY    12   7  79 NW8G18    29.89S WCI   1
HIBBING        CLOUDY    11   5  77 NW9       29.94S WCI  -2
EVELETH        CLOUDY    12   5  73 W12       29.94S WCI  -2
DULUTH HARBOR  CLOUDY    19  12  73 W12       29.99S WCI   7
TWO HARBORS    FLURRIES  18  10  73 W6        29.90F WCI   9
SILVER BAY     FLURRIES  16   9  73 W6        29.89S WCI   7
GRAND MARAIS     N/A     21  12  68 W9        29.90R WCI  11
G MARAIS ARPRT FLURRIES  12   5  73 W9G16     29.79F WCI   0
$$
MNZ029>031-032-039>041-046>048-054>057-064-190800-
   West Central Minnesota

CITY           SKY/WX    TMP DP  RH WIND       PRES   REMARKS
FERGUS FALLS   CLEAR     10   7  85 CALM      30.11S
WHEATON        CLEAR     14   9  79 S3        30.12R
MORRIS         CLEAR     14  10  85 W6        30.08S WCI   5
ALEXANDRIA     CLEAR     15  10  80 W12       30.06R WCI   2
ELBOW LAKE     FAIR      10   7  88 NW5       30.08S FOG     WCI   2
WADENA         CLEAR     12   7  79 W7        30.03S WCI   2
GLENWOOD       CLEAR     14  10  85 W9        30.06S WCI   2
APPLETON         N/A     14  10  85 W7        30.10S WCI   4
BENSON         CLEAR     14   9  79 W7        30.11R WCI   4
ORTONVILLE     CLEAR     16  10  79 MISG      30.10R
MADISON        CLEAR     18  12  79 W5        30.12R WCI  11
WILLMAR        FAIR      18  12  79 W7        30.09S WCI   8
$$
MNZ033>034-036-042>043-049>051-058-059-190800-
   Central Minnesota

CITY           SKY/WX    TMP DP  RH WIND       PRES   REMARKS
ST CLOUD       CLEAR     17  10  74 W7        30.05R WCI   8
SAUK CENTRE    FAIR      15  10  82 W6        30.05S WCI   6
PAYNESVILLE    CLEAR     16  12  84 W7        30.06F WCI   6
AITKIN         CLEAR     12   7  79 W3        29.98F
PINE RIVER     CLEAR     12   7  79 NW5       30.04S WCI   4
BRAINERD       CLEAR     17   8  67 NW10      30.01S WCI   5
STAPLES        CLEAR     12   7  79 W8        30.02S WCI   1
LONG PRAIRIE   FAIR      16   9  73 W6        30.04R WCI   7
LITTLE FALLS   CLEAR     18   5  57 W6        30.05R WCI   9
LITCHFIELD     CLEAR     19  12  73 NW7       30.07S WCI  10
BUFFALO        CLEAR     19  10  69 W8        30.08S WCI   9
MAPLE LAKE     CLEAR     19  13  77 W6        30.07R WCI  11
HUTCHINSON     CLOUDY    18  13  80 W8        30.08S WCI   8
$$
MNZ037-044-045-052-053-190800-
   East Central Minnesota

CITY           SKY/WX    TMP DP  RH WIND       PRES   REMARKS
PRINCETON      CLEAR     18  10  73 W6        30.04R WCI   9
MORA           CLEAR     18  10  73 W5        30.04R WCI  11
CAMBRIDGE      CLEAR     19   9  63 W6        30.04S WCI  11
RUSH CITY      CLEAR     17  11  78 W6        30.03S WCI   8
MOOSE LAKE     CLEAR     16   9  73 NW9G16    29.98R WCI   4
HINCKLEY       FAIR      18  10  73 NW5       30.01R WCI  11
CLOQUET        FLURRIES  16   9  73 NW12      29.95S WCI   3
MCGREGOR       CLEAR     16  10  79 W6        29.99S WCI   7
$$
MNZ071>073-080-081-089-090-097-098-190800-
   Southwest Minnesota

CITY           SKY/WX    TMP DP  RH WIND       PRES   REMARKS
MONTEVIDEO     CLEAR     16  10  79 W3        30.11S
GRANITE FALLS  CLEAR     14  11  89 W5        30.13S WCI   6
CANBY          CLEAR     21  15  78 NW7       30.12S WCI  13
MARSHALL       CLEAR     18  12  77 W12       30.12R WCI   5
REDWOOD FALLS  CLEAR     17   9  70 W8        30.11S WCI   7
OLIVIA         CLEAR     18  12  79 W7        30.10R WCI   8
PIPESTONE      CLEAR     19  12  73 W8        30.11R WCI   9
WINDOM           N/A     18   5  57 W7        30.10S WCI   8
WORTHINGTON    CLEAR     18  13  80 W9        30.12S WCI   7
JACKSON        CLEAR     21  12  68 NW6       30.11S WCI  14
SLAYTON        CLEAR     18  13  79 W8        30.11S WCI   8
$$
MNZ065>067-074>077-082>085-091>093-190800-
   South Central Minnesota

CITY           SKY/WX    TMP DP  RH WIND       PRES   REMARKS
MANKATO        CLEAR     18  11  74 NW9       30.09R WCI   7
NEW ULM        CLEAR     18   9  68 CALM      30.10S
ST JAMES       CLEAR     19  12  73 W12       30.12R WCI   7
FAIRMONT       CLEAR     20  13  74 NW12      30.11S WCI   8
GLENCOE        CLEAR     20  13  73 W6        30.07S WCI  12
FARIBAULT      CLOUDY    19  12  73 W8        30.06R WCI   9
OWATONNA       CLOUDY    19  12  73 W12       30.05R WCI   7
WASECA         CLOUDY    19  14  79 W8        30.08R WCI   9
ALBERT LEA     PTCLDY    19  10  68 NW9G16    30.06S WCI   9
$$
MNZ078>079-086>088-094>096-190800-
   Southeast Minnesota

CITY           SKY/WX    TMP DP  RH WIND       PRES   REMARKS
ROCHESTER      PTCLDY    20  14  77 NW13      30.00F WCI   7
RED WING       CLOUDY    21   9  58 NW8       30.04R WCI  12
STANTON        PTCLDY    21  15  76 W9        30.04R WCI  11
DODGE CENTER   PTCLDY    19  12  73 NW13G18   30.02F WCI   7
WINONA           N/A     23  14  68 NW10      30.03R WCI  12
AUSTIN         PTCLDY    19  12  73 NW12      30.03F WCI   7
PRESTON        CLEAR     20  13  75 NW17G24   30.01S WCI   5
$$
ABBREVIATIONS USED IN REMARKS
   TC - TEMPERATURES IN CELSIUS
  WCI - WIND CHILL INDEX
   HX - HEAT INDEX
  VSB - VISIBILITY
$$




USA.gov is the U.S. government's official web portal to all federal, state and local government web resources and services.